Hourly Data Report for October 23, 2004

TORONTO CITY
ONTARIO

43°40'00.000" N
79°24'00.000" W
112.50 m
6158355
71508
XTO

Download Data

Hourly Data (October 2004)
Hourly Data Report for October 23, 2004
TIME
LST
Temp Definition
°C
Dew Point Definition
°C
Rel Hum Definition
%
Precip. Amount Definition
mm

Wind Dir Definition
10's deg

Wind Spd Definition
km/h
Visibility Definition
km
Stn Press Definition
kPa
Hmdx Definition


Wind Chill Definition


Weather Definition


00:00 10.7 7.1 78   LegendMM LegendMM LegendMM 100.91     LegendNANA
01:00 10.6 6.9 78   LegendMM LegendMM LegendMM 100.93     LegendNANA
02:00 9.7 7.0 83   LegendMM LegendMM LegendMM 100.88     LegendNANA
03:00 9.3 7.0 86   LegendMM LegendMM LegendMM 100.83     LegendNANA
04:00 9.2 7.1 87   LegendMM LegendMM LegendMM 100.81     LegendNANA
05:00 8.7 7.0 89   LegendMM LegendMM LegendMM 100.73     LegendNANA
06:00 8.6 6.5 87   LegendMM LegendMM LegendMM 100.70     LegendNANA
07:00 8.7 6.3 85   LegendMM LegendMM LegendMM 100.74     LegendNANA
08:00 8.9 6.3 84   LegendMM LegendMM LegendMM 100.79     LegendNANA
09:00 9.7 6.6 81   LegendMM LegendMM LegendMM 100.70     LegendNANA
10:00 9.6 5.9 78   LegendMM LegendMM LegendMM 100.61     LegendNANA
11:00 10.2 6.4 77   LegendMM LegendMM LegendMM 100.64     LegendNANA
12:00 10.6 5.3 70   LegendMM LegendMM LegendMM 100.54     LegendNANA
13:00 11.7 6.7 71   LegendMM LegendMM LegendMM 100.49     LegendNANA
14:00 11.9 6.7 70   LegendMM LegendMM LegendMM 100.39     LegendNANA
15:00 11.6 6.9 73   LegendMM LegendMM LegendMM 100.24     LegendNANA
16:00 11.4 7.4 76   LegendMM LegendMM LegendMM 100.19     LegendNANA
17:00 11.1 7.7 80   LegendMM LegendMM LegendMM 100.08     LegendNANA
18:00 11.2 8.1 81   LegendMM LegendMM LegendMM 99.99     LegendNANA
19:00 11.5 7.4 76   LegendMM LegendMM LegendMM 100.02     LegendNANA
20:00 11.3 6.9 74   LegendMM LegendMM LegendMM 99.94     LegendNANA
21:00 10.7 6.6 76   LegendMM LegendMM LegendMM 99.88     LegendNANA
22:00 10.4 6.8 78   LegendMM LegendMM LegendMM 99.89     LegendNANA
23:00 10.3 6.6 78   LegendMM LegendMM LegendMM 99.81     LegendNANA

Notes on Data Quality.

Legend

  • E = Estimated
  • M = Missing
  • NA = Not Available*
  • [empty] = Indicates an unobserved value
Date modified: